Regional Weather Roundup
Issued by NWS

Home | Current Version | Previous Version | Text Only | Print | Product List | Glossary Off
Versions: 1 2 3 4 5 6 7 8 9 10 11 12 13 14 15 16 17 18 19 20 21 22 23 24 25 26 27 28 29 30 31 32 33 34 35 36 37 38 39 40 41 42 43 44 45 46 47 48 49 50

000
ASUS43 KOAX 050110
RWRNE

WEATHER ROUNDUP FOR NEBRASKA
NATIONAL WEATHER SERVICE OMAHA NE
800 PM CDT MON MAY 04 2015

NOTES: SATELLITE DATA IS BEING USED TO AUGMENT CLOUD COVER ABOVE
       12000 FEET.
       "FAIR" INDICATES FEW OR NO CLOUDS BELOW 12,000 FEET WITH NO
       SIGNIFICANT WEATHER AND/OR OBSTRUCTIONS TO VISIBILITY.

  * THESE STATIONS DO NOT REPORT WEATHER SUCH AS RAIN...SNOW OR FOG.

NEZ001>004-019>022-054>056-050200-
NEBRASKA PANHANDLE

CITY           SKY/WX    TMP DP  RH WIND       PRES   REMARKS
SCOTTSBLUFF    PTCLDY    58  37  45 SE14      30.08S
ALLIANCE       CLOUDY    56  33  42 SE13      30.08F
CHADRON        CLOUDY    53  45  74 NE7       30.08F
KIMBALL        PTCLDY    52  43  72 SE13      30.09R
SIDNEY         CLOUDY    50  41  71 SE15      30.11S
$$

NEZ057>060-069>072-079>082-050200-
SOUTHWEST NEBRASKA

CITY           SKY/WX    TMP DP  RH WIND       PRES   REMARKS
NORTH PLATTE   CLOUDY    50  45  83 NE7       30.09F
IMPERIAL       CLOUDY    49  45  86 NE10      30.09S
LEXINGTON      CLOUDY    53  50  90 NE14      30.07S
MCCOOK         CLOUDY    54  49  83 NE13      30.07R
OGALLALA       CLOUDY    48  45  87 E5        30.11S
$$

NEZ005>010-023>029-035>040-094-050200-
NORTH CENTRAL NEBRASKA

CITY           SKY/WX    TMP DP  RH WIND       PRES   REMARKS
VALENTINE      MOCLDY    63  31  30 SE13      30.09F
AINSWORTH      CLOUDY    62  32  32 SE10      30.10S
BROKEN BOW     CLOUDY    54  49  83 E7        30.08F
O`NEILL        CLOUDY    62  45  53 S5        30.10S
ORD            CLOUDY    56  47  71 E12       30.07F
THEDFORD       CLOUDY    58  39  49 E5        30.10F
$$

NEZ041-046>049-061>064-073>077-083>087-050200-
SOUTH CENTRAL NEBRASKA

CITY           SKY/WX    TMP DP  RH WIND       PRES   REMARKS
GRAND ISLAND   CLOUDY    55  53  93 E12       30.06F
AURORA         CLOUDY    56  54  95 NE15      30.05F
HASTINGS       CLOUDY    56  53  90 E13       30.05S
HEBRON         CLOUDY    61  57  88 NE10      30.02S FOG
HOLDREGE       CLOUDY    54  50  86 NE12      30.06R
KEARNEY *      CLOUDY    54  48  82 NE14      30.06S
YORK           CLOUDY    55  55 100 NE13      30.05F
$$

NEZ011>018-030>034-042>045-050200-
NORTHEAST NEBRASKA

CITY           SKY/WX    TMP DP  RH WIND       PRES   REMARKS
NORFOLK        CLOUDY    57  51  80 E12       30.09S
ALBION         CLOUDY    55  49  81 E12       30.09F
BLAIR          CLOUDY    56  54  91 NE15      30.07S FOG
COLUMBUS *     CLOUDY    55  48  76 E14       30.08F
FREMONT        DRIZZLE   57  55  94 NE10      30.07F
TEKAMAH        LGT RAIN  58  55  90 NE10      30.08F
WAYNE          CLOUDY    57  50  77 E10       30.11R
$$

NEZ050>053-065>068-078-088>093-050200-
SOUTHEAST NEBRASKA

CITY           SKY/WX    TMP DP  RH WIND       PRES   REMARKS
LINCOLN        CLOUDY    59  56  89 NE12      30.05F
OMAHA EPPLEY   LGT RAIN  60  57  89 N9        30.06S
BEATRICE       CLOUDY    62  60  95 NE13      30.01F
FALLS CITY     LGT RAIN  65  62  90 E13       30.00F
NEBRASKA CITY  LGT RAIN  63  63  99 N7        30.04R
PLATTSMOUTH    CLOUDY    61  59  93 N6        30.04S FOG
$$

NEZ044-045-051>053-067-050200-
OMAHA AREA

CITY           SKY/WX    TMP DP  RH WIND       PRES   REMARKS
OMAHA EPPLEY   LGT RAIN  60  57  89 N9        30.06S
BLAIR          CLOUDY    56  54  91 NE15      30.07S FOG
FREMONT        DRIZZLE   57  55  94 NE10      30.07F
MILLARD        CLOUDY    60  57  91 NE7       30.05F FOG
OFFUTT AFB     CLOUDY    62  60  93 N9        30.04F
PLATTSMOUTH    CLOUDY    61  59  93 N6        30.04S FOG
$$


USA.gov is the U.S. government's official web portal to all federal, state and local government web resources and services.